Clarksdale Fletcher Field Air, MS

7:22 AM CST on November 21, 2019 (GMT -0600)
Fletcher

Weather History for KCKM - September, 2019

Change the Weather History Date:

Saturday, September 7, 2019

  Actual Average (WUND) Record (WUND)
Temperature  
Mean Temperature 83 °F -  
Max Temperature 95 °F - - (-1)
Min Temperature 71 °F - - (-1)
Cooling Degree Days 18    
Growing Degree Days 33 (Base 50)    
Moisture  
Dew Point 76 °F    
Average Humidity 82    
Maximum Humidity 100    
Minimum Humidity 53    
Precipitation  
Precipitation 0.00 in - - ()
Sea Level Pressure  
Sea Level Pressure 29.97 in    
Wind  
Wind Speed 1 mph ()    
Max Wind Speed 9 mph    
Max Gust Speed 14 mph    
Visibility 9.6 miles    
Events      
Averages and records for this station are not official NWS values.
T = Trace of Precipitation, MM = Missing Value Source: Averaged Metar Reports

Daily Weather History Graph

Daily Weather History Graph

Search for Another Location

Airport or City:

Astronomy

Sep. 07, 2019 Rise Set
Actual Time 6:39 AM CDT 7:20 PM CDT
Civil Twilight 6:14 AM CDT 7:45 PM CDT
Nautical Twilight 5:44 AM CDT 8:15 PM CDT
Astronomical Twilight 5:13 AM CDT 8:45 PM CDT
Moon 3:23 PM CDT (9/7) 12:43 AM CDT (9/7)
Length of Visible Light 13h 31m
Length of Day
12h 40m
Waxing Gibbous, 66% of the Moon is Illuminated
Sep 7
Waxing Gibbous
Sep 13
Full
Sep 21
Last Quarter
Sep 28
New
Oct 5
First Quarter

Hourly Weather History & Observations

Time (CDT) Temp. Heat Index Dew Point Humidity Pressure Visibility Wind Dir Wind Speed Gust Speed Precip Events Conditions
12:15 AM 77.0 °F - 77.0 °F 100% 29.97 in 10.0 mi Calm Calm - N/A   Unknown
12:35 AM 77.0 °F - 77.0 °F 100% 29.97 in 10.0 mi Calm Calm - N/A   Unknown
12:55 AM 77.0 °F - 77.0 °F 100% 29.97 in 10.0 mi Calm Calm - N/A   Unknown
1:15 AM 77.0 °F - 77.0 °F 100% 29.97 in 10.0 mi Calm Calm - N/A   Unknown
1:35 AM 75.2 °F - 75.2 °F 100% 29.97 in 10.0 mi Calm Calm - N/A   Unknown
1:55 AM 75.2 °F - 75.2 °F 100% 29.97 in 10.0 mi Calm Calm - N/A   Unknown
2:15 AM 75.2 °F - 75.2 °F 100% 29.97 in 10.0 mi Calm Calm - N/A   Unknown
2:55 AM 77.0 °F - 77.0 °F 100% 29.97 in 10.0 mi Calm Calm - N/A   Unknown
3:15 AM 75.2 °F - 75.2 °F 100% 29.97 in 10.0 mi Calm Calm - N/A   Unknown
3:35 AM 75.2 °F - 75.2 °F 100% 29.97 in 10.0 mi Calm Calm - N/A   Unknown
3:55 AM 75.2 °F - 75.2 °F 100% 29.97 in 10.0 mi Calm Calm - N/A   Unknown
4:35 AM 75.2 °F - 75.2 °F 100% 29.97 in 10.0 mi Calm Calm - N/A   Unknown
4:55 AM 73.4 °F - 73.4 °F 100% 29.97 in 9.0 mi Calm Calm - N/A   Unknown
5:15 AM 73.4 °F - 73.4 °F 100% 29.97 in 8.0 mi Calm Calm - N/A   Unknown
6:15 AM 73.4 °F - 73.4 °F 100% 29.99 in 7.0 mi Calm Calm - N/A   Unknown
6:35 AM 73.4 °F - 73.4 °F 100% 29.99 in 9.0 mi Calm Calm - N/A   Unknown
6:55 AM 71.6 °F - 71.6 °F 100% 29.99 in 5.0 mi Calm Calm - N/A   Mist
7:15 AM 73.4 °F - 73.4 °F 100% 29.99 in 5.0 mi Calm Calm - N/A   Mist
7:35 AM 73.4 °F - 73.4 °F 100% 30.00 in 6.0 mi Calm Calm - N/A   Mist
10:55 AM 87.8 °F 102.5 °F 78.8 °F 75% 30.00 in - Calm Calm - N/A   Unknown
11:15 AM 87.8 °F 99.7 °F 77.0 °F 70% 30.01 in 10.0 mi Calm Calm - N/A   Unknown
11:35 AM 89.6 °F 102.2 °F 77.0 °F 66% 30.00 in 10.0 mi Calm Calm - N/A   Unknown
11:55 AM 89.6 °F 102.2 °F 77.0 °F 66% 30.00 in 10.0 mi Calm Calm - N/A   Unknown
12:15 PM 89.6 °F 102.2 °F 77.0 °F 66% 30.00 in 10.0 mi Calm Calm - N/A   Unknown
12:35 PM 91.4 °F 105.1 °F 77.0 °F 63% 30.00 in 10.0 mi Calm Calm - N/A   Unknown
1:15 PM 93.2 °F 105.0 °F 75.2 °F 56% 29.98 in 10.0 mi NW 3.5 mph 11.5 mph N/A   Unknown
1:55 PM 93.2 °F 105.0 °F 75.2 °F 56% 29.97 in 10.0 mi North 4.6 mph - N/A   Unknown
2:15 PM 93.2 °F 105.0 °F 75.2 °F 56% 29.96 in 10.0 mi Calm Calm 12.7 mph N/A   Unknown
2:35 PM 95.0 °F 107.4 °F 75.2 °F 53% 29.96 in 10.0 mi NW 6.9 mph - N/A   Unknown
2:55 PM 93.2 °F 105.0 °F 75.2 °F 56% 29.95 in 10.0 mi North 4.6 mph 13.8 mph N/A   Unknown
3:15 PM 95.0 °F 107.4 °F 75.2 °F 53% 29.95 in 10.0 mi Variable 5.8 mph 13.8 mph N/A   Unknown
3:35 PM 93.2 °F 105.0 °F 75.2 °F 56% 29.94 in 10.0 mi Calm Calm - N/A   Unknown
3:55 PM 93.2 °F 105.0 °F 75.2 °F 56% 29.94 in 10.0 mi Calm Calm - N/A   Unknown
4:15 PM 93.2 °F 105.0 °F 75.2 °F 56% 29.94 in 10.0 mi Calm Calm - N/A   Unknown
4:35 PM 93.2 °F 105.0 °F 75.2 °F 56% 29.94 in 10.0 mi Variable 6.9 mph 12.7 mph N/A   Unknown
5:35 PM 91.4 °F 102.5 °F 75.2 °F 59% 29.93 in - North 9.2 mph - N/A   Unknown
5:55 PM 91.4 °F 102.5 °F 75.2 °F 59% 29.94 in 10.0 mi North 6.9 mph - N/A   Unknown
6:15 PM 91.4 °F 102.5 °F 75.2 °F 59% 29.94 in 10.0 mi North 6.9 mph - N/A   Unknown
6:35 PM 89.6 °F 102.2 °F 77.0 °F 66% 29.95 in 10.0 mi North 6.9 mph - N/A   Unknown
6:55 PM 87.8 °F 99.7 °F 77.0 °F 70% 29.95 in 10.0 mi North 5.8 mph - N/A   Unknown
7:15 PM 86.0 °F 96.9 °F 77.0 °F 74% 29.95 in 10.0 mi North 5.8 mph - N/A   Unknown
7:35 PM 84.2 °F 94.1 °F 77.0 °F 79% 29.95 in 10.0 mi NNE 4.6 mph - N/A   Unknown
7:55 PM 82.4 °F 90.9 °F 77.0 °F 84% 29.96 in 10.0 mi Calm Calm - N/A   Unknown
8:15 PM 80.6 °F 87.1 °F 77.0 °F 89% 29.96 in 10.0 mi Calm Calm - N/A   Unknown
8:35 PM 80.6 °F 87.1 °F 77.0 °F 89% 29.97 in 10.0 mi Calm Calm - N/A   Unknown
8:55 PM 78.8 °F - 77.0 °F 94% 29.97 in 10.0 mi North 3.5 mph - N/A   Unknown
9:15 PM 78.8 °F - 77.0 °F 94% 29.97 in 10.0 mi Calm Calm - N/A   Unknown
10:15 PM 78.8 °F - 75.2 °F 89% 29.98 in 10.0 mi Calm Calm - N/A   Unknown
10:35 PM 75.2 °F - 75.2 °F 100% 29.98 in 10.0 mi Calm Calm - N/A   Unknown
10:55 PM 75.2 °F - 75.2 °F 100% 29.98 in 10.0 mi Calm Calm - N/A   Unknown
11:15 PM 75.2 °F - 75.2 °F 100% 29.98 in 10.0 mi Calm Calm - N/A   Unknown
11:35 PM 75.2 °F - 75.2 °F 100% 29.98 in 10.0 mi Calm Calm - N/A   Unknown
11:55 PM 75.2 °F - 75.2 °F 100% 29.98 in 10.0 mi Calm Calm - N/A   Unknown